SCP
0 0 0 0 0 0 0 0 0 0 0 0 0 0 0 0 0 0 0 0 0 0 0 0 0 0 0 0 0 0 0 0 0 0 0 0 0 0 0 0 0 0 0
-0 -0 -0 -0 -0 0 0 0 0 0 0 0 0 0 0 0 0 0 0 0 0 0 0 0 0 0 0 0 0 0 0 0 0 0 0 0 0 0 0 0 0 0 0
-0 -0 -0 -0 -0 -0 0 0 0 0 0 0 0 0 0 0 0 0 0 0 0 0 0 0 0 0 0 0 0 0 0 0 0 0 0 0 0 0 0 0 0 0 0
-0 -0 -0 -0 0 0 0 0 0 0 0 0 0 0 0 0 0 0 0 0 0 0 0 0 0 0 0 0 0 0 0 0 0 0 0 0 0 0 0 0 0 0 0
-0 -0 -0 -0 0 0 0 0 0 0 0 0 0 0 0 0 0 0 0 0 0 0 0 0 0 0 0 0 0 0 0 0 0 0 0 0 0 0 0 0 0 0 0
-0 0 0 0 0 0 0 0 0 0 0 0 0 0 0 0 0 0 0 0 0 0 0 0 0 0 0 0 0 0 0 0 0 0 0 0 0 0 0 0 0 0 0
0 0 0 0 0 0 0 0 0 0 0 0 0 0 0 0 0 0 0 0 0 0 0 0 0 0 0 0 0 0 0 0 0 0 0 0 0 0 0 0 0 0 0
0 0 0 0 0 0 0 0 0 0 0 0 0 0 0 0 0 0 0 0 0 0 0 0 0 0 0 0 0 0 0 0 0 0 0 0 0 0 0 0 0 0 0
0 0 0 0 0 0 0 0 0 0 0 0 0 0 0 0 0 0 0 0 0 0 0 0 0 0 0 0 0 0 0 0 0 0 0 0 0 0 0 0 0 0 0
0 0 0 0 0 0 0 0 0 0 0 0 0 0 0 0 0 0 0 0 0 0 0 0 0 0 0 0 0 0 0 0 0 0 0 0 0 0 0 0 0 0 0
0 0 0 0 0 -0 0 0 0 0 0 0 0 0 0 0 0 0 0 0 0 0 0 0 0 0 0 0 0 0 0 0 0 0 0 0 0 0 0 0 0 0 0
0 0 0 0 0 0 -0 0 -0 -0 -0 0 -0 0 0 0 0 0 0 0 0 0 0 0 0 0 0 0 0 0 0 0 0 0 0 0 0 0 0 0 0 0 0
0 0 0 0 0 0 -0 -0 -0 -0 -0 -0 -0 -0 0 0 0 0 0 0 0 0 0 0 0 0 0 0 0 0 0 0 0 0 0 0 0 0 0 0 0 0 0
0 0 0 0 0 0 0 0 -0 -0 -0 -0 -0 -0 0 0 0 0 0 0 0 0 0 0 0 0 0 0 0 0 0 0 0 0 0 0 0 0 0 0 0 0 0
0 0 0 0 0 0 0 0 0 -0 -0 -0 0 -0 -0 0 0 0 0 0 0 0 0 0 0 0 0 0 0 0 0 0 0 0 0 0 0 0 0 0 0 0 0
0 0 0 0 0 0 0 0 -0 -0 -0 -0 -0 -0 0 0 0 0 0 0 0 0 0 0 0 0 0 0 0 0 0 0 0 0 0 0 0 0 0 0 0 0 0
0 0 0 0 0 0 0 0 -0 -0 -0 0 -0 -0 -0 0 0 0 0 0 0 0 0 0 0 0 0 0 0 0 0 0 0 0 0 0 0 0 0 0 0 0 0
0 0 0 0 0 0 0 0 0 -0 -0 -0 -0 -0 -0 -0 0 0 0 0 0 0 0 0 0 0 0 0 0 0 0 0 0 0 0 0 0 0 0 0 0 0 0
0 0 0 0 0 0 0 0 0 -0 -0 -0 -0 -0 -0 -0 0 0 0 0 0 0 0 0 0 0 0 0 0 0 0 0 0 0 0 0 0 0 0 0 0 0 0
0 0 0 0 0 0 0 0 0 0 -0 -0 -0 0 -0 -0 0 0 0 0 0 0 0 0 0 0 0 0 0 0 0 0 0 0 0 0 0 0 0 0 0 0 0
0 0 0 0 0 0 0 0 0 0 -0 -0 -0 -0 -0 0 0 0 0 0 0 0 0 0 0 0 0 0 0 0 0 0 0 0 0 0 0 0 0 0 0 0 0
0 0 0 0 0 0 0 0 0 0 -0 -0 -0 -0 -0 0 0 0 0 0 0 0 0 0 0 0 0 0 0 0 0 0 0 0 0 0 0 0 0 0 0 0 0
0 0 0 0 0 0 0 0 0 0 -0 -0 -0 -0 0 0 0 0 0 0 0 0 0 0 0 0 0 0 0 0 0 0 0 0 0 0 0 0 0 0 0 0 0
0 0 0 0 0 0 0 0 0 0 -0 -0 -0 -0 0 0 0 0 0 0 0 0 0 0 0 0 0 0 0 0 0 0 0 0 0 0 0 0 0 0 0 0 0
0 0 0 0 0 0 0 0 0 0 -0 0 0 0 0 0 0 0 0 0 0 0 0 0 0 0 0 0 0 0 0 0 0 0 0 0 0 0 0 0 0 0 0
0 0 0 0 0 0 0 0 0 0 0 0 0 0 0 0 0 0 0 0 0 0 0 0 0 0 0 0 0 0 0 0 0 0 0 0 0 0 0 0 0 0 0
Wind_Speed_500mb
31 31 30 27 25 26 19 20 24 29 31 34 31 31 36 41 46 44 35 42 45 40 37 35 32 30 29 30 31 33 36 42 35 27 32 25 20 15 9 6 7 10 11
31 31 32 32 29 26 26 23 22 27 29 34 37 38 38 41 44 44 38 42 46 42 37 34 31 30 28 29 29 30 31 37 39 30 33 30 23 18 12 9 8 9 11
30 31 32 32 32 32 28 26 26 26 31 34 39 40 40 40 42 49 47 43 42 44 37 33 29 27 27 27 29 30 29 30 35 33 31 31 26 20 14 12 10 8 6
30 32 35 36 35 35 36 31 29 28 29 36 38 41 42 41 42 48 49 49 46 44 35 33 29 25 25 25 28 30 29 28 29 30 28 28 24 21 16 12 12 9 4
29 31 32 34 36 37 37 36 32 31 30 32 39 43 46 46 45 46 49 50 45 42 36 36 29 25 26 27 29 28 28 28 28 30 28 26 22 20 15 13 13 10 6
31 31 31 33 35 35 37 37 37 32 32 31 35 43 47 46 44 44 45 46 47 41 41 35 32 30 30 31 32 31 28 25 27 28 25 22 20 17 14 12 11 11 6
33 36 36 35 37 38 37 38 40 38 32 31 31 40 47 48 44 43 43 46 47 45 40 38 36 32 32 32 31 32 32 30 30 26 23 21 18 15 12 11 9 9 8
33 35 38 38 38 39 40 39 39 41 39 33 30 33 43 47 46 44 45 48 47 46 41 39 38 34 33 32 32 33 33 32 30 28 27 23 19 15 13 10 9 8 8
35 34 36 38 36 37 40 42 42 43 43 41 34 31 38 44 49 45 47 48 51 49 46 46 43 39 34 33 35 35 34 34 33 32 28 24 20 16 13 10 9 7 7
38 35 40 39 40 41 41 42 44 46 47 48 44 36 32 42 48 51 49 48 53 53 51 53 47 42 42 40 39 38 36 35 34 33 30 27 22 18 13 11 9 6 6
42 43 43 43 44 45 45 43 45 46 49 49 50 43 35 34 45 52 53 51 54 56 55 56 52 50 50 46 43 39 33 34 35 34 31 28 24 20 15 12 9 6 7
48 50 47 46 48 50 50 48 45 46 49 53 53 50 42 34 39 50 56 55 52 57 57 55 52 51 52 48 47 44 44 41 37 36 33 30 26 21 17 14 11 9 8
56 57 51 46 47 50 53 53 53 49 49 53 55 56 49 39 35 44 53 55 56 58 56 53 47 50 51 51 50 49 50 45 41 40 36 32 27 23 19 15 12 10 9
60 61 53 51 49 50 52 56 59 56 53 53 56 56 56 49 38 35 52 56 60 61 58 57 52 56 56 54 54 58 52 46 41 38 37 37 33 27 22 18 14 13 11
60 65 63 62 59 58 59 59 61 61 57 58 57 55 55 53 51 33 43 59 66 70 65 64 65 67 67 66 62 62 56 54 51 46 44 41 35 31 25 20 17 15 13
62 69 72 69 65 66 67 70 65 65 63 62 59 57 56 56 47 39 38 48 59 73 76 76 74 76 75 72 72 69 64 59 55 52 48 43 37 32 28 22 20 18 17
70 73 74 75 74 74 73 75 79 74 69 64 61 56 55 54 51 46 43 42 53 71 83 83 79 80 78 78 79 76 71 65 58 55 50 45 42 38 33 27 24 21 20
77 81 84 85 84 82 80 83 80 81 81 72 62 56 51 50 54 53 50 44 54 78 83 86 83 82 82 83 81 77 72 66 63 59 55 50 46 41 36 32 26 23 23
78 87 89 89 90 90 89 89 85 81 81 77 72 65 52 47 54 56 58 64 67 93 92 86 82 84 85 84 80 76 73 68 65 61 58 54 50 45 39 34 30 27 26
78 80 81 86 89 90 90 90 87 84 82 78 74 71 56 45 55 62 69 71 70 88 98 87 83 86 84 80 78 77 74 72 69 65 60 55 52 45 39 36 34 29 27
73 74 73 74 81 84 85 87 86 82 81 79 76 69 56 55 63 61 73 77 74 84 92 84 84 88 87 85 82 77 73 72 70 66 63 58 55 47 44 39 35 33 33
64 65 67 71 72 76 78 77 77 78 78 76 74 68 55 56 64 64 65 77 74 72 85 77 81 83 85 82 77 75 74 74 74 71 67 63 57 48 44 43 43 40 38
56 58 59 63 65 67 69 71 72 72 71 70 68 61 53 58 64 66 64 68 70 68 76 75 78 84 84 78 74 72 75 79 77 72 68 65 58 55 49 48 48 45 41
45 45 47 50 52 55 58 61 62 63 65 66 64 61 61 59 58 63 62 64 66 70 75 75 81 83 78 74 74 73 73 71 69 66 60 60 63 62 52 52 51 46 40
31 35 38 40 43 46 48 49 51 52 53 53 54 54 53 55 59 61 62 64 63 66 68 72 74 72 67 68 72 73 73 72 73 72 69 67 65 58 48 54 53 49 47
16 19 24 27 31 34 36 39 42 44 44 45 47 48 51 56 58 62 61 61 60 62 63 65 63 63 66 67 67 67 66 67 78 79 76 78 75 63 62 59 58 53 52
Wind_Direction_500mb
355 355 355 355 352 345 330 297 270 251 242 236 230 235 237 244 243 244 241 271 268 267 271 273 271 265 254 243 236 229 224 222 229 224 206 199 192 183 173 139 92 70 60
349 347 345 341 340 338 332 320 288 268 254 244 238 230 235 236 245 240 232 255 266 266 267 270 268 260 248 237 230 224 219 219 221 221 197 191 184 182 177 159 123 91 67
342 344 340 334 332 331 332 323 314 285 261 249 245 243 238 239 235 237 242 239 257 260 261 265 261 251 240 230 222 218 215 213 212 217 196 184 183 182 183 174 165 132 85
327 333 337 336 332 330 330 328 318 306 280 256 247 246 242 239 235 233 242 242 242 248 254 257 251 240 230 221 216 215 214 209 201 194 189 180 181 184 188 188 183 169 132
322 325 328 333 333 330 325 324 323 313 301 272 250 244 244 241 240 236 234 237 238 245 246 249 239 226 218 215 214 215 210 205 199 188 186 181 183 185 190 194 191 193 194
313 318 320 322 325 328 327 324 320 318 310 295 261 246 243 244 242 240 233 234 234 238 242 241 232 221 215 212 211 208 201 196 192 187 184 185 184 185 184 188 190 195 202
304 309 312 313 316 322 325 325 322 318 315 305 283 254 245 241 241 239 233 232 232 233 235 236 229 224 219 216 211 205 201 192 182 184 185 186 184 182 182 185 181 177 172
287 298 304 310 316 319 322 322 321 320 318 313 301 274 252 245 238 235 232 231 229 230 228 233 230 228 224 219 213 206 199 196 193 186 186 185 184 182 181 181 173 157 167
272 288 298 302 312 323 329 328 323 319 319 315 308 294 266 244 243 235 231 230 228 227 223 225 224 223 220 217 212 207 201 199 197 197 193 191 186 180 178 180 176 167 159
263 278 286 290 298 307 316 324 328 322 319 317 311 302 288 254 238 237 232 228 229 225 222 222 219 218 218 215 210 207 204 201 200 197 195 190 186 185 181 180 175 175 164
263 268 276 282 287 294 301 308 315 320 317 316 313 305 294 274 240 238 234 229 227 225 223 224 218 216 216 214 208 207 204 204 201 198 194 190 188 185 182 179 171 165 153
257 261 269 274 280 287 292 298 303 310 315 315 314 309 299 287 254 236 236 232 226 227 225 224 223 222 221 215 208 203 202 201 200 199 194 192 190 187 184 178 174 167 157
256 260 265 268 275 281 288 291 295 300 307 312 312 312 304 295 276 245 237 234 226 225 224 225 225 225 223 217 210 206 207 204 201 200 195 192 191 191 189 185 184 175 166
254 257 261 265 271 278 285 288 289 292 298 304 306 308 308 295 283 261 239 231 229 224 220 220 215 221 219 217 209 207 206 204 204 201 195 195 197 193 191 187 185 180 167
246 250 255 259 267 276 281 285 286 286 291 295 296 298 297 291 288 278 253 234 227 224 217 216 211 210 209 209 208 209 203 201 199 196 197 200 198 196 194 188 184 180 172
252 248 253 258 264 271 279 285 283 284 285 286 287 288 290 285 277 270 258 241 231 229 222 218 213 210 208 206 207 205 203 202 199 198 198 199 199 198 196 190 185 180 178
257 255 256 260 263 269 276 282 285 282 282 280 281 282 282 279 266 257 253 244 230 231 230 223 216 213 210 208 209 206 204 201 199 200 199 198 198 197 195 193 188 185 182
262 260 260 262 263 267 272 278 279 280 284 282 278 280 276 267 256 250 243 239 224 227 230 225 216 214 213 212 211 208 205 202 200 200 199 198 200 201 198 196 191 187 186
262 260 260 260 262 264 268 271 271 274 277 279 281 278 276 258 247 240 235 235 226 219 223 222 215 214 215 215 213 210 208 203 203 202 199 200 200 199 197 196 192 190 190
265 261 260 259 258 259 261 263 266 269 272 273 274 274 276 257 239 232 230 232 229 219 223 221 212 212 215 215 213 212 207 203 204 203 202 200 202 198 199 204 199 196 193
268 262 257 255 256 256 257 259 263 265 266 268 269 270 265 248 244 237 231 230 227 220 224 222 213 211 211 212 212 211 208 206 204 203 201 201 200 196 199 203 202 196 197
267 263 257 254 255 255 256 258 260 262 262 264 265 265 255 239 241 241 238 233 226 222 223 220 215 213 213 212 209 208 207 204 204 203 202 202 198 195 202 205 206 202 201
265 263 259 256 256 257 257 256 257 258 259 261 260 257 249 237 236 239 236 233 225 219 219 215 210 213 213 212 210 208 205 205 204 205 203 202 196 200 204 210 211 207 205
267 263 260 259 257 255 255 255 255 256 256 255 253 245 240 239 240 235 231 228 221 216 215 210 209 213 215 210 208 207 207 208 205 204 205 208 200 212 203 211 211 208 207
263 261 260 258 257 256 255 254 253 252 252 249 245 241 236 237 235 228 222 221 217 214 213 211 210 210 211 209 208 206 205 201 206 201 207 201 208 215 207 213 210 206 207
279 270 265 262 259 257 255 252 250 247 243 239 232 226 221 219 216 213 213 212 210 209 209 209 208 205 203 199 202 205 205 212 211 196 201 208 214 204 210 213 208 208 209
Wind_Speed_850mb
31 31 30 27 25 26 19 20 24 29 31 34 31 31 36 41 46 44 35 42 45 40 37 35 32 30 29 30 31 33 36 42 35 27 32 25 20 15 9 6 7 10 11
31 31 32 32 29 26 26 23 22 27 29 34 37 38 38 41 44 44 38 42 46 42 37 34 31 30 28 29 29 30 31 37 39 30 33 30 23 18 12 9 8 9 11
30 31 32 32 32 32 28 26 26 26 31 34 39 40 40 40 42 49 47 43 42 44 37 33 29 27 27 27 29 30 29 30 35 33 31 31 26 20 14 12 10 8 6
30 32 35 36 35 35 36 31 29 28 29 36 38 41 42 41 42 48 49 49 46 44 35 33 29 25 25 25 28 30 29 28 29 30 28 28 24 21 16 12 12 9 4
29 31 32 34 36 37 37 36 32 31 30 32 39 43 46 46 45 46 49 50 45 42 36 36 29 25 26 27 29 28 28 28 28 30 28 26 22 20 15 13 13 10 6
31 31 31 33 35 35 37 37 37 32 32 31 35 43 47 46 44 44 45 46 47 41 41 35 32 30 30 31 32 31 28 25 27 28 25 22 20 17 14 12 11 11 6
33 36 36 35 37 38 37 38 40 38 32 31 31 40 47 48 44 43 43 46 47 45 40 38 36 32 32 32 31 32 32 30 30 26 23 21 18 15 12 11 9 9 8
33 35 38 38 38 39 40 39 39 41 39 33 30 33 43 47 46 44 45 48 47 46 41 39 38 34 33 32 32 33 33 32 30 28 27 23 19 15 13 10 9 8 8
35 34 36 38 36 37 40 42 42 43 43 41 34 31 38 44 49 45 47 48 51 49 46 46 43 39 34 33 35 35 34 34 33 32 28 24 20 16 13 10 9 7 7
38 35 40 39 40 41 41 42 44 46 47 48 44 36 32 42 48 51 49 48 53 53 51 53 47 42 42 40 39 38 36 35 34 33 30 27 22 18 13 11 9 6 6
42 43 43 43 44 45 45 43 45 46 49 49 50 43 35 34 45 52 53 51 54 56 55 56 52 50 50 46 43 39 33 34 35 34 31 28 24 20 15 12 9 6 7
48 50 47 46 48 50 50 48 45 46 49 53 53 50 42 34 39 50 56 55 52 57 57 55 52 51 52 48 47 44 44 41 37 36 33 30 26 21 17 14 11 9 8
56 57 51 46 47 50 53 53 53 49 49 53 55 56 49 39 35 44 53 55 56 58 56 53 47 50 51 51 50 49 50 45 41 40 36 32 27 23 19 15 12 10 9
60 61 53 51 49 50 52 56 59 56 53 53 56 56 56 49 38 35 52 56 60 61 58 57 52 56 56 54 54 58 52 46 41 38 37 37 33 27 22 18 14 13 11
60 65 63 62 59 58 59 59 61 61 57 58 57 55 55 53 51 33 43 59 66 70 65 64 65 67 67 66 62 62 56 54 51 46 44 41 35 31 25 20 17 15 13
62 69 72 69 65 66 67 70 65 65 63 62 59 57 56 56 47 39 38 48 59 73 76 76 74 76 75 72 72 69 64 59 55 52 48 43 37 32 28 22 20 18 17
70 73 74 75 74 74 73 75 79 74 69 64 61 56 55 54 51 46 43 42 53 71 83 83 79 80 78 78 79 76 71 65 58 55 50 45 42 38 33 27 24 21 20
77 81 84 85 84 82 80 83 80 81 81 72 62 56 51 50 54 53 50 44 54 78 83 86 83 82 82 83 81 77 72 66 63 59 55 50 46 41 36 32 26 23 23
78 87 89 89 90 90 89 89 85 81 81 77 72 65 52 47 54 56 58 64 67 93 92 86 82 84 85 84 80 76 73 68 65 61 58 54 50 45 39 34 30 27 26
78 80 81 86 89 90 90 90 87 84 82 78 74 71 56 45 55 62 69 71 70 88 98 87 83 86 84 80 78 77 74 72 69 65 60 55 52 45 39 36 34 29 27
73 74 73 74 81 84 85 87 86 82 81 79 76 69 56 55 63 61 73 77 74 84 92 84 84 88 87 85 82 77 73 72 70 66 63 58 55 47 44 39 35 33 33
64 65 67 71 72 76 78 77 77 78 78 76 74 68 55 56 64 64 65 77 74 72 85 77 81 83 85 82 77 75 74 74 74 71 67 63 57 48 44 43 43 40 38
56 58 59 63 65 67 69 71 72 72 71 70 68 61 53 58 64 66 64 68 70 68 76 75 78 84 84 78 74 72 75 79 77 72 68 65 58 55 49 48 48 45 41
45 45 47 50 52 55 58 61 62 63 65 66 64 61 61 59 58 63 62 64 66 70 75 75 81 83 78 74 74 73 73 71 69 66 60 60 63 62 52 52 51 46 40
31 35 38 40 43 46 48 49 51 52 53 53 54 54 53 55 59 61 62 64 63 66 68 72 74 72 67 68 72 73 73 72 73 72 69 67 65 58 48 54 53 49 47
16 19 24 27 31 34 36 39 42 44 44 45 47 48 51 56 58 62 61 61 60 62 63 65 63 63 66 67 67 67 66 67 78 79 76 78 75 63 62 59 58 53 52
Wind_Direction_850mb
355 355 355 355 352 345 330 297 270 251 242 236 230 235 237 244 243 244 241 271 268 267 271 273 271 265 254 243 236 229 224 222 229 224 206 199 192 183 173 139 92 70 60
349 347 345 341 340 338 332 320 288 268 254 244 238 230 235 236 245 240 232 255 266 266 267 270 268 260 248 237 230 224 219 219 221 221 197 191 184 182 177 159 123 91 67
342 344 340 334 332 331 332 323 314 285 261 249 245 243 238 239 235 237 242 239 257 260 261 265 261 251 240 230 222 218 215 213 212 217 196 184 183 182 183 174 165 132 85
327 333 337 336 332 330 330 328 318 306 280 256 247 246 242 239 235 233 242 242 242 248 254 257 251 240 230 221 216 215 214 209 201 194 189 180 181 184 188 188 183 169 132
322 325 328 333 333 330 325 324 323 313 301 272 250 244 244 241 240 236 234 237 238 245 246 249 239 226 218 215 214 215 210 205 199 188 186 181 183 185 190 194 191 193 194
313 318 320 322 325 328 327 324 320 318 310 295 261 246 243 244 242 240 233 234 234 238 242 241 232 221 215 212 211 208 201 196 192 187 184 185 184 185 184 188 190 195 202
304 309 312 313 316 322 325 325 322 318 315 305 283 254 245 241 241 239 233 232 232 233 235 236 229 224 219 216 211 205 201 192 182 184 185 186 184 182 182 185 181 177 172
287 298 304 310 316 319 322 322 321 320 318 313 301 274 252 245 238 235 232 231 229 230 228 233 230 228 224 219 213 206 199 196 193 186 186 185 184 182 181 181 173 157 167
272 288 298 302 312 323 329 328 323 319 319 315 308 294 266 244 243 235 231 230 228 227 223 225 224 223 220 217 212 207 201 199 197 197 193 191 186 180 178 180 176 167 159
263 278 286 290 298 307 316 324 328 322 319 317 311 302 288 254 238 237 232 228 229 225 222 222 219 218 218 215 210 207 204 201 200 197 195 190 186 185 181 180 175 175 164
263 268 276 282 287 294 301 308 315 320 317 316 313 305 294 274 240 238 234 229 227 225 223 224 218 216 216 214 208 207 204 204 201 198 194 190 188 185 182 179 171 165 153
257 261 269 274 280 287 292 298 303 310 315 315 314 309 299 287 254 236 236 232 226 227 225 224 223 222 221 215 208 203 202 201 200 199 194 192 190 187 184 178 174 167 157
256 260 265 268 275 281 288 291 295 300 307 312 312 312 304 295 276 245 237 234 226 225 224 225 225 225 223 217 210 206 207 204 201 200 195 192 191 191 189 185 184 175 166
254 257 261 265 271 278 285 288 289 292 298 304 306 308 308 295 283 261 239 231 229 224 220 220 215 221 219 217 209 207 206 204 204 201 195 195 197 193 191 187 185 180 167
246 250 255 259 267 276 281 285 286 286 291 295 296 298 297 291 288 278 253 234 227 224 217 216 211 210 209 209 208 209 203 201 199 196 197 200 198 196 194 188 184 180 172
252 248 253 258 264 271 279 285 283 284 285 286 287 288 290 285 277 270 258 241 231 229 222 218 213 210 208 206 207 205 203 202 199 198 198 199 199 198 196 190 185 180 178
257 255 256 260 263 269 276 282 285 282 282 280 281 282 282 279 266 257 253 244 230 231 230 223 216 213 210 208 209 206 204 201 199 200 199 198 198 197 195 193 188 185 182
262 260 260 262 263 267 272 278 279 280 284 282 278 280 276 267 256 250 243 239 224 227 230 225 216 214 213 212 211 208 205 202 200 200 199 198 200 201 198 196 191 187 186
262 260 260 260 262 264 268 271 271 274 277 279 281 278 276 258 247 240 235 235 226 219 223 222 215 214 215 215 213 210 208 203 203 202 199 200 200 199 197 196 192 190 190
265 261 260 259 258 259 261 263 266 269 272 273 274 274 276 257 239 232 230 232 229 219 223 221 212 212 215 215 213 212 207 203 204 203 202 200 202 198 199 204 199 196 193
268 262 257 255 256 256 257 259 263 265 266 268 269 270 265 248 244 237 231 230 227 220 224 222 213 211 211 212 212 211 208 206 204 203 201 201 200 196 199 203 202 196 197
267 263 257 254 255 255 256 258 260 262 262 264 265 265 255 239 241 241 238 233 226 222 223 220 215 213 213 212 209 208 207 204 204 203 202 202 198 195 202 205 206 202 201
265 263 259 256 256 257 257 256 257 258 259 261 260 257 249 237 236 239 236 233 225 219 219 215 210 213 213 212 210 208 205 205 204 205 203 202 196 200 204 210 211 207 205
267 263 260 259 257 255 255 255 255 256 256 255 253 245 240 239 240 235 231 228 221 216 215 210 209 213 215 210 208 207 207 208 205 204 205 208 200 212 203 211 211 208 207
263 261 260 258 257 256 255 254 253 252 252 249 245 241 236 237 235 228 222 221 217 214 213 211 210 210 211 209 208 206 205 201 206 201 207 201 208 215 207 213 210 206 207
279 270 265 262 259 257 255 252 250 247 243 239 232 226 221 219 216 213 213 212 210 209 209 209 208 205 203 199 202 205 205 212 211 196 201 208 214 204 210 213 208 208 209